Helicity
19 26 31 39 41 42 51 46 36 44 49 44 26 27 18 30 4 0 -6 -1 14 26 10 16 6 4 5 6 10 9 18 16 14
24 39 39 48 44 44 43 41 39 28 22 21 16 13 21 23 12 14 13 15 19 13 14 23 21 17 16 14 18 14 16 15 16
23 35 48 40 42 40 40 36 38 29 24 22 19 18 24 19 20 24 23 24 17 13 19 13 31 25 24 19 16 20 18 15 16
26 48 43 34 34 32 35 27 26 29 26 27 26 29 25 24 28 28 41 48 32 22 13 21 24 32 28 22 18 15 18 18 19
14 15 31 29 20 19 15 8 13 18 20 25 35 47 43 23 25 40 47 52 35 28 27 18 24 23 35 32 30 28 21 22 22
10 31 26 24 18 14 8 1 -7 3 12 28 43 46 29 24 43 51 66 64 33 32 32 34 29 27 27 40 40 35 35 31 29
15 22 33 19 16 13 9 5 7 18 18 35 63 37 25 40 41 48 70 52 35 35 37 40 41 34 36 34 43 48 41 41 40
21 23 24 25 37 24 24 26 28 22 28 32 36 40 41 54 59 56 79 46 29 30 35 39 41 43 41 39 38 53 66 55 54
27 38 31 32 34 33 38 43 36 35 33 31 35 41 54 68 75 70 103 80 43 38 37 36 38 40 40 41 47 52 62 91 97
52 52 54 55 54 61 65 62 65 64 62 63 62 62 66 70 101 109 119 137 94 65 61 56 50 49 50 57 69 70 67 73 99
85 80 73 72 71 71 67 63 64 62 61 72 72 73 82 87 96 119 116 151 134 103 80 82 84 82 74 70 90 96 94 89 90
71 68 65 66 67 61 64 62 67 66 69 64 69 78 76 83 81 92 105 104 133 130 80 69 79 85 84 79 93 114 123 122 124
69 68 66 75 74 72 68 69 69 62 60 59 69 81 82 79 83 94 100 99 100 109 77 71 61 55 63 69 69 93 112 121 125
87 94 99 94 82 75 71 60 56 55 60 72 75 77 80 73 77 70 75 75 88 101 87 106 101 114 99 73 65 65 82 102 116
131 125 118 96 86 87 83 78 73 66 68 74 78 83 85 90 100 102 118 110 107 104 99 104 108 89 81 101 102 89 82 86 85
143 113 112 109 97 91 85 82 77 72 82 75 78 65 -6 12 44 93 102 68 76 68 77 108 117 120 100 82 73 105 116 114 117
115 104 94 94 78 79 75 71 59 60 73 53 44 12 35 55 216 117 81 84 98 82 108 104 125 110 123 105 79 81 90 106 112
99 87 72 67 58 59 57 60 53 54 61 88 72 74 95 89 45 112 60 129 160 155 107 143 123 90 100 92 90 61 29 31 43
85 72 59 49 37 48 44 57 68 88 98 95 97 110 117 116 70 115 142 31 150 118 103 110 143 141 129 160 144 109 54 43 51
66 46 35 34 30 50 61 72 75 65 73 73 75 79 80 85 120 122 143 118 121 135 131 126 155 114 109 137 141 220 240 189 140
Wind_Speed
31 31 34 35 36 36 36 34 32 36 40 39 39 31 34 27 18 15 15 14 9 9 13 13 18 19 22 21 22 20 16 17 15
32 32 34 36 36 36 35 35 36 37 36 37 37 38 39 32 26 21 20 22 17 12 15 14 18 20 21 21 20 20 18 17 15
34 35 33 36 38 36 33 31 32 34 37 40 40 39 38 38 29 28 26 29 26 21 21 25 22 25 24 24 23 22 21 19 17
36 37 37 36 38 39 40 39 33 34 38 39 41 44 45 40 31 33 31 26 29 29 29 32 32 27 28 30 30 28 25 23 20
30 35 32 37 36 37 41 43 42 38 39 41 42 45 46 39 36 35 34 33 33 35 36 36 37 39 33 33 32 31 30 28 26
30 34 39 37 36 36 37 39 42 45 43 38 40 44 45 42 40 40 39 37 38 40 41 42 41 43 48 40 39 38 36 34 32
36 39 37 36 36 36 36 37 40 43 43 44 39 43 46 48 47 45 44 42 41 43 44 44 44 45 46 49 46 44 43 40 39
36 38 38 38 37 41 40 43 42 45 47 49 50 52 55 54 53 53 49 46 47 49 49 49 48 49 48 48 48 47 45 45 44
37 39 41 43 44 46 47 48 49 51 52 54 55 54 54 55 57 56 51 49 48 50 51 52 52 53 52 52 52 53 52 49 48
39 42 45 47 47 48 50 50 52 54 56 57 57 57 56 56 57 58 55 48 47 47 48 48 48 48 49 51 53 54 55 54 52
43 45 47 47 47 49 51 53 56 57 58 60 59 58 55 55 55 56 59 54 50 51 52 52 52 53 55 56 58 58 58 58 58
41 45 48 49 50 53 56 55 56 59 61 63 63 62 62 62 62 62 62 63 56 52 54 55 56 57 59 60 61 63 63 64 64
41 45 48 51 55 57 58 61 64 65 66 67 66 66 65 65 65 64 63 63 64 64 58 59 62 64 66 67 69 70 71 71 71
43 48 53 56 56 56 59 62 65 69 70 70 70 69 69 68 66 66 67 67 68 68 70 71 68 69 70 72 73 74 73 73 73
45 48 52 54 56 59 62 65 65 69 72 74 74 72 71 71 70 70 69 68 68 69 70 72 73 72 72 74 75 77 78 80 81
50 51 54 57 58 62 65 67 72 72 72 82 82 78 73 64 71 68 67 77 81 78 76 78 77 78 76 76 78 80 83 87 89
52 54 56 60 61 64 67 70 74 73 74 82 90 89 88 71 82 91 83 83 86 83 80 80 85 86 85 85 86 83 88 90 92
55 57 59 62 64 68 70 72 75 79 76 75 79 92 95 108 91 92 88 84 90 92 93 93 94 92 91 90 92 91 89 91 94
59 61 64 66 67 71 73 73 75 78 83 80 74 77 89 106 117 85 97 88 91 99 98 96 96 98 96 92 95 97 98 99 103
64 66 68 70 72 73 75 76 76 75 78 80 82 82 83 87 104 126 104 101 96 98 99 97 99 100 97 95 91 92 97 99 103
Wind_Direction
338 344 340 339 339 337 337 340 346 341 329 330 331 346 345 356 6 15 16 18 41 43 22 10 355 351 349 352 354 359 10 9 13
338 341 344 342 343 341 342 342 339 335 333 331 332 329 331 338 341 344 347 348 348 349 348 346 342 340 340 343 345 347 351 353 356
332 335 343 342 339 340 346 349 347 342 336 329 326 327 328 327 331 330 328 327 326 324 326 326 325 325 325 326 327 329 332 335 338
334 335 337 338 338 335 335 335 340 339 334 331 327 323 321 323 323 323 322 319 318 314 310 313 314 312 312 313 314 315 316 318 319
347 337 344 338 341 340 335 332 333 335 334 330 326 323 321 320 319 318 316 313 310 309 308 304 305 306 304 304 304 304 304 304 304
344 339 335 338 341 340 339 337 333 330 330 330 327 324 322 321 320 317 314 310 306 304 302 303 300 299 301 297 297 296 295 295 294
336 334 337 338 339 337 336 334 332 330 330 328 328 325 321 319 317 316 313 309 305 302 299 297 297 295 294 295 292 290 290 288 287
338 337 338 338 338 335 335 333 332 329 327 325 322 320 318 317 316 314 312 309 306 303 299 296 293 291 290 289 288 287 284 283 282
339 337 335 333 333 332 331 329 327 325 324 321 319 319 318 316 315 314 311 308 305 303 300 296 293 290 288 286 285 284 282 277 276
338 335 333 331 332 332 332 331 329 326 324 322 320 318 317 316 315 314 312 307 303 300 296 294 290 286 283 280 280 280 280 277 272
334 333 332 333 333 331 330 328 326 325 323 321 319 317 316 315 314 313 312 308 301 299 296 293 290 286 284 282 280 278 276 274 272
338 334 332 332 332 330 329 329 327 325 323 321 320 319 317 315 314 312 312 311 306 298 296 294 290 287 284 282 280 277 275 273 271
339 336 335 334 332 330 330 328 326 324 323 322 321 320 319 317 315 314 312 310 309 307 300 297 296 293 290 286 284 281 278 275 273
339 337 335 333 334 334 332 331 329 326 325 323 322 321 320 318 317 315 314 312 310 308 306 303 299 296 295 292 289 285 281 277 273
348 346 344 342 339 337 336 334 333 330 327 325 323 323 322 320 318 317 316 315 314 312 309 307 304 300 296 295 293 290 288 286 281
350 348 347 346 343 341 338 336 332 331 332 326 324 323 321 323 319 319 319 315 313 310 308 307 305 303 300 297 294 292 291 290 287
353 351 348 345 342 341 339 337 333 332 333 328 324 322 319 323 321 316 314 314 311 309 309 308 306 304 303 300 297 294 293 291 289
353 350 348 345 342 338 338 336 334 330 332 332 327 323 319 318 319 316 315 316 314 311 309 307 305 303 301 300 297 295 292 291 291
351 347 345 342 341 338 336 336 334 333 329 330 329 325 322 319 317 320 317 315 315 311 310 308 307 305 302 302 300 297 295 291 289
346 343 342 340 339 338 336 336 336 336 333 331 330 327 325 322 317 314 316 315 315 314 312 310 309 306 304 303 302 303 300 297 294